Retour au catalogue

CZ-6A DEB

ActifPO
NORAD 60885·DEBRIS·🇨🇳 China

Lancé Aug 6, 2024 depuis Taiyuan Satellite Launch Center

Loading…

Prochains Passages (prochaines 24 heures)

TLE

FraisSource: Space-Track

Époque: Sep 14, 2026, 06:36 UTC

1 60885U 24140KQ  26257.27503495  .00000697  00000-0  24093-3 0  9998
2 60885  88.9681 260.0700 0037093 314.6425  45.1750 14.34375564108385

Suivez CZ-6A DEB en temps réel avec AllMySat

Download on the App Store